Regional Weather Roundup
Issued by NWS

Home | Current Version | Previous Version | Graphics & Text | Print | Product List | Glossary On
Versions: 1 2 3 4 5 6 7 8 9 10 11 12 13 14 15 16 17 18 19 20 21 22 23 24 25 26 27 28 29 30 31 32 33 34 35 36 37 38 39 40 41 42 43 44 45 46 47 48 49 50
308
ASUS45 KABQ 270810
RWRNM
NEW MEXICO REGIONAL WEATHER ROUNDUP
NATIONAL WEATHER SERVICE ALBUQUERQUE NM
200 AM MDT TUE SEP 27 2016

NOTE: "FAIR" MEANS FEW OR NO CLOUDS BELOW 12,000 FEET AGL WITH NO
       SIGNIFICANT WEATHER OR OBSTRUCTIONS TO VISION.

      THIS PRODUCT IS RELEASED AS TWO VERSIONS.  ONE VERSION NEAR
      THE TOP OF THE HOUR CONTAINING PRELIMINARY DATA FROM ALBUQUERQUE
      AND OTHER STATIONS.  A FINAL VERSION WITH ADDITIONAL DATA IS
      ISSUED ABOUT 10 MINUTES AFTER THE HOUR.

NMZ501-503-504-510>518-270900-
NORTHWEST PLATEAU/NORTHCENTRAL MOUNTAINS

CITY           SKY/WX    TMP DP  RH WIND       PRES   REMARKS
FARMINGTON     FAIR      53  36  52 E5        30.31S
LOS ALAMOS     FAIR      52  29  41 SW7       30.43S
SANTA FE       FAIR      47  33  58 CALM      30.39S
TAOS           FAIR      39  27  60 E8        30.44S WCI  34
ANGEL FIRE     FAIR      29  27  91 CALM      30.49F

$$
NMZ402-403-502-505>509-270900-
WESTCENTRAL MOUNTAINS/SOUTHWEST MOUNTAINS

CITY           SKY/WX    TMP DP  RH WIND       PRES   REMARKS
GALLUP         FAIR      45  26  47 E5        30.35F
SILVER CITY    CLOUDY    50  47  92 SE3       30.32S

$$
NMZ407-409-411-412-270900-
SOUTHERN DESERTS

CITY           SKY/WX    TMP DP  RH WIND       PRES   REMARKS
DEMING         MOCLDY    53  51  93 E7        30.29F
LAS CRUCES     FAIR      52  51  97 CALM      30.31F
HOLLOMAN AFB   LGT RAIN  54  54 100 NE5       30.29F
ALAMOGORDO     LGT RAIN  54  52  94 N3          N/A
T OR C         CLOUDY    53  50  89 CALM      30.30F

$$
NMZ519>523-270900-
CENTRAL VALLEYS/CENTRAL HIGHLANDS

CITY           SKY/WX    TMP DP  RH WIND       PRES   REMARKS
ALBUQUERQUE    FAIR      57  34  41 N5        30.34F
MORIARTY ARPT  FAIR      35  29  80 N3        30.40F
CLINES CORNERS FAIR      45  34  65 SW7       30.42F
BELEN          CLOUDY    57  38  50 SE6       30.33F
SOCORRO        CLOUDY    54  47  76 SE8       30.33S

$$
NMZ524>526-539-540-270900-
SOUTHCENTRAL MOUNTAINS

CITY           SKY/WX    TMP DP  RH WIND       PRES   REMARKS
RUIDOSO        CLOUDY    50  39  66 S5        30.43S

$$
NMZ527>531-270900-
NORTHEAST HIGHLANDS/NORTHEAST PLAINS

CITY           SKY/WX    TMP DP  RH WIND       PRES   REMARKS
LAS VEGAS      FAIR      42  31  64 CALM      30.40F
RATON          FAIR      41  34  76 NE7       30.36F
CLAYTON        FAIR      49  37  63 W8        30.30S

$$
NMZ532>537-270900-
EASTCENTRAL PLAINS

CITY           SKY/WX    TMP DP  RH WIND       PRES   REMARKS
TUCUMCARI      FAIR      51  38  60 SW9       30.29F
CANNON AFB     CLEAR     55  42  60 W6        30.32F
CLOVIS AIRPORT FAIR      52  41  66 SW6       30.32S

$$
NMZ028-029-538-270900-
SOUTHEAST PLAINS

CITY           SKY/WX    TMP DP  RH WIND       PRES   REMARKS
ROSWELL        FAIR      53  48  83 SE3       30.29F
ARTESIA        FAIR      55  52  88 S7        30.30F
CARLSBAD       MOCLDY    56  53  90 S7        30.29F
HOBBS          FAIR      55  55 100 W3        30.30F


$$




USA.gov is the U.S. government's official web portal to all federal, state and local government web resources and services.